Regional Weather Roundup
Issued by NWS

Home | Current Version | Previous Version | Text Only | Print | Product List | Glossary Off
Versions: 1 2 3 4 5 6 7 8 9 10 11 12 13 14 15 16 17 18 19 20 21 22 23 24 25 26 27 28 29 30 31 32 33 34 35 36 37 38 39 40 41 42 43 44 45 46 47 48 49 50

000
ASUS43 KMPX 010801
RWRMN
WEATHER ROUNDUP FOR MINNESOTA
NATIONAL WEATHER SERVICE TWIN CITIES/CHANHASSEN MN
300 AM CDT SAT NOV 01 2014


NOTE: "FAIR" INDICATES FEW OR NO CLOUDS BELOW 12,000 FEET WITH NO
SIGNIFICANT WEATHER AND/OR OBSTRUCTIONS TO VISIBILITY. N/A MEANS
CURRENT SKY AND/OR WEATHER CONDITIONS ARE NOT AVAILABLE.

MNZ060>063-068>070-010900-
   Twin Cities Metro

CITY           SKY/WX    TMP DP  RH WIND       PRES   REMARKS
TWIN CITIES    CLEAR     25  17  72 SE7       30.47S WCI  17
ST PAUL        CLEAR     26  21  81 E3        30.48F
CRYSTAL        CLEAR     20  15  81 CALM      30.45F
BLAINE         CLEAR     23  21  93 CALM      30.45F
LAKEVILLE      CLEAR     16  16 100 CALM      30.46F
EDEN PRAIRIE   CLEAR     24  18  77 S5        30.45F WCI  18
SOUTH ST PAUL  CLEAR     24  19  83 CALM      30.47S
LAKE ELMO      FAIR      19  19 100 CALM      30.48S
$$
MNZ001>005-007-008-013>017-022>024-027-028-010900-
   Northwest Minnesota

CITY           SKY/WX    TMP DP  RH WIND       PRES   REMARKS
BEMIDJI        MOCLDY    29  17  61 S9        30.34F WCI  20
HALLOCK        CLOUDY    34  19  55 S18G25    30.24F WCI  23
ROSEAU         CLOUDY    32  21  64 S13       30.28F WCI  22
WARROAD        CLOUDY    30  21  69 S7        30.29F WCI  23
THIEF RVR FALL MOCLDY    30  19  64 S13       30.29F WCI  20
CROOKSTON      CLOUDY    34  21  60 S17       30.29F WCI  23
FOSSTON        PTCLDY    28  18  64 S10       30.31F WCI  19
DETROIT LAKES  MOCLDY    32  19  59 S16       30.33F WCI  21
MOORHEAD       CLOUDY    32  21  64 S21G26    30.32F WCI  20
PARK RAPIDS    PTCLDY    26  16  65 S8        30.35F WCI  18
MAHNOMEN       FAIR      30  20  64 S12G17    30.31F WCI  21
$$
MNZ006-009>011-018-025>026-010900-
   North Central Minnesota

CITY           SKY/WX    TMP DP  RH WIND       PRES   REMARKS
BAUDETTE       MOCLDY    26  19  74 S7        30.32F WCI  18
FLAG ISLAND    CLOUDY    36  25  64 S20       30.28F
INTL FALLS     CLEAR     21  14  74 VRB3      30.36F
WASKISH        PTCLDY    25  21  86 CALM      30.34F
BIG FORK       CLEAR     19  16  86 CALM      30.38S
LONGVILLE      CLEAR     27  18  69 S7        30.38F WCI  19
GRAND RAPIDS   CLEAR     21  12  68 S5        30.39S WCI  15
CRANE LAKE     CLEAR     16  16 100 CALM      30.42S
ORR            CLEAR     21  14  73 CALM      30.37S
COOK           CLEAR     16  14  93 CALM      30.40S
WALKER         FAIR      28  15  56 S7        30.37S WCI  21
$$
MNZ012-019>021-037-010900-
   Northeast Minnesota

CITY           SKY/WX    TMP DP  RH WIND       PRES   REMARKS
DULUTH         CLEAR     24  13  62 SW6       30.41S WCI  17
ELY            CLEAR     12  10  92 CALM      30.41S
HIBBING        CLEAR     13   9  84 CALM      30.41S
EVELETH        CLEAR     16  14  93 CALM      30.42R
DULUTH HARBOR  CLEAR     28  19  69 CALM      30.47S
TWO HARBORS    CLEAR     21  16  79 CALM      30.42S
SILVER BAY     CLEAR     18  16  93 CALM      30.42S
GRAND MARAIS     N/A     22  18  85 NW6       30.45F WCI  14
G MARAIS ARPRT CLEAR      9   5  85 SW1       30.40S
$$
MNZ029>031-032-039>041-046>048-054>057-064-010900-
   West Central Minnesota

CITY           SKY/WX    TMP DP  RH WIND       PRES   REMARKS
FERGUS FALLS   PTCLDY    28  16  59 S17       30.37S WCI  16
WHEATON        PTCLDY    25  18  74 SE14      30.36F WCI  13
MORRIS         CLEAR     27  19  74 SE14      30.36F WCI  15
ALEXANDRIA     PTCLDY    28  18  66 S13       30.38F WCI  17
ELBOW LAKE     FAIR      27  19  70 SE16      30.35F WCI  15
WADENA         PTCLDY    25  18  74 S8        30.36F WCI  16
GLENWOOD       PTCLDY    25  19  80 SE8       30.39F WCI  16
APPLETON       CLEAR     27  18  69 SE8       30.38F WCI  18
BENSON         CLEAR     27  18  69 S10G16    30.39F WCI  17
ORTONVILLE     CLEAR     23  18  80 SE10      30.36S WCI  12
MADISON        PTCLDY    27  19  74 S10       30.38F WCI  17
WILLMAR        FAIR      25  16  68 SE8       30.42F WCI  16
$$
MNZ033>034-036-042>043-049>051-058-059-010900-
   Central Minnesota

CITY           SKY/WX    TMP DP  RH WIND       PRES   REMARKS
ST CLOUD       CLEAR     21  15  78 SE3       30.43F
SAUK CENTRE    FAIR      22  17  78 SE8       30.41F WCI  13
PAYNESVILLE    CLEAR     25  16  70 SE6       30.43S WCI  18
AITKIN         CLEAR     19  16  86 CALM      30.40S
PINE RIVER     PTCLDY    19  18  93 CALM      30.41F
BRAINERD       CLEAR     22  15  75 S7        30.41F WCI  13
STAPLES        PTCLDY    21  16  79 S5        30.38F WCI  15
LONG PRAIRIE   FAIR      25  19  80 SE8       30.40F WCI  16
LITTLE FALLS   PTCLDY    23  16  74 SE3       30.42S
LITCHFIELD     CLEAR     28  19  69 S3        30.43F
BUFFALO        CLEAR     21  15  77 CALM      30.46S
MAPLE LAKE     CLEAR     27  19  72 S3        30.45S
$$
MNZ037-044-045-052-053-010900-
   East Central Minnesota

CITY           SKY/WX    TMP DP  RH WIND       PRES   REMARKS
PRINCETON      CLEAR     18  16  93 CALM      30.44S
MORA           CLEAR     18  16  93 CALM      30.45F
CAMBRIDGE      CLEAR     21  14  73 CALM      30.43S
RUSH CITY      CLEAR     17  15  90 CALM      30.46S
MOOSE LAKE     CLEAR     19  16  86 CALM      30.42F
HINCKLEY       FAIR      19  18  93 CALM      30.45S
CLOQUET        CLEAR     25  14  63 S3        30.42S
MCGREGOR       CLEAR     25  19  80 S3        30.42S
$$
MNZ071>073-080-081-089-090-097-098-010900-
   Southwest Minnesota

CITY           SKY/WX    TMP DP  RH WIND       PRES   REMARKS
MONTEVIDEO     CLEAR     27  18  69 S8        30.40F WCI  18
GRANITE FALLS  CLEAR     26  17  68 SE12      30.43F WCI  15
CANBY          PTCLDY    26  19  77 SE8       30.38F WCI  17
MARSHALL       PTCLDY    23  14  68 S9        30.38F WCI  13
REDWOOD FALLS  PTCLDY    21  13  71 S9        30.43F WCI  11
OLIVIA         CLEAR     23  16  74 SE7       30.42F WCI  15
PIPESTONE      PTCLDY    25  16  68 S10       30.36F WCI  15
WINDOM         PTCLDY    23  16  74 SE7       30.42F WCI  15
WORTHINGTON    PTCLDY    25  16  68 S9        30.41F WCI  15
JACKSON        PTCLDY    27  18  69 S7        30.43F WCI  19
TRACY          PTCLDY    27  18  69 S10       30.40F WCI  17
SLAYTON        PTCLDY    21  17  83 SE9       30.40F WCI  11
$$
MNZ065>067-074>077-082>085-091>093-010900-
   South Central Minnesota

CITY           SKY/WX    TMP DP  RH WIND       PRES   REMARKS
MANKATO        CLEAR     21  12  68 SE9       30.45F WCI  11
NEW ULM        CLEAR     21  16  79 S6        30.44F WCI  14
ST JAMES       PTCLDY    23  16  74 SE6       30.45F WCI  16
FAIRMONT       PTCLDY    19  10  68 S7        30.44F WCI  10
GLENCOE        CLEAR     25  17  72 SE3       30.44F
FARIBAULT      CLEAR     16  14  93 CALM      30.46F
OWATONNA       CLEAR     19  16  86 SE3       30.46S
WASECA         CLEAR     19  14  79 SE5       30.48R WCI  13
ALBERT LEA     CLEAR     21  18  86 SE3       30.45F
$$
MNZ078>079-086>088-094>096-010900-
   Southeast Minnesota

CITY           SKY/WX    TMP DP  RH WIND       PRES   REMARKS
ROCHESTER      CLEAR     21  16  81 S5        30.46F WCI  15
RED WING       CLEAR     19  16  86 CALM      30.47S
STANTON        CLEAR     17  15  88 CALM      30.46S
DODGE CENTER   PTCLDY    21  18  86 S3        30.45F
WINONA         CLEAR     25  23  93 CALM      30.50S
AUSTIN         CLEAR     19  18  93 CALM      30.46S
PRESTON        CLEAR     23  17  79 CALM      30.46S
$$
ABBREVIATIONS USED IN REMARKS
   TC - TEMPERATURES IN CELSIUS
  WCI - WIND CHILL INDEX
   HX - HEAT INDEX
  VSB - VISIBILITY
$$



USA.gov is the U.S. government's official web portal to all federal, state and local government web resources and services.